Location: Unspecified
(42.1900°N, 71.3291°W)
Time: 06:34:56
(UTC-05:00)

CZ-3 Stage 3 - Visible Passes

Search period start: 25 November 2017 00:00
Search period end: 05 December 2017 00:00
Orbit: 416 x 34781 km, 31.0° (Epoch: 24 November)

Date Brightness Start Highest point End Pass type
(mag) Time Alt. Az. Time Alt. Az. Time Alt. Az.
25 Nov 4.8 03:41:59 33° SSW 03:43:17 34° S 04:08:27 10° ESE visible
28 Nov 4.9 03:33:11 33° S 03:34:02 33° S 03:58:11 10° ESE visible
01 Dec 5.0 03:24:24 32° S 03:24:46 32° S 03:47:56 10° SE visible
04 Dec 5.2 03:15:36 31° S 03:15:36 31° S 03:37:41 10° SE visible
